This is the latest recevied weather packets stored in our database for station/object SP2TMT-10. If no packets are shown the sender has not sent any weather packets the latest 10 day(s).
| Time | Temp. | Humidity | Pressure | Rain* | Wind** | Luminosity | Snow |
|---|---|---|---|---|---|---|---|
| 1777446605 | 20° C | 38% | 1028.9 hPa | - | - | - | - |
| 1777445705 | 20° C | 38% | 1029.1 hPa | - | - | - | - |
| 1777444805 | 20° C | 39% | 1029 hPa | - | - | - | - |
| 1777443905 | 20° C | 40% | 1028.9 hPa | - | - | - | - |
| 1777443005 | 20° C | 41% | 1028.9 hPa | - | - | - | - |
| 1777442105 | 20° C | 43% | 1028.8 hPa | - | - | - | - |
| 1777441205 | 20° C | 42% | 1028.7 hPa | - | - | - | - |
| 1777440304 | 20° C | 38% | 1028.6 hPa | - | - | - | - |
| 1777439404 | 20° C | 37% | 1028.5 hPa | - | - | - | - |
| 1777438504 | 20° C | 37% | 1028.5 hPa | - | - | - | - |
| 1777437604 | 20° C | 36% | 1028.3 hPa | - | - | - | - |
| 1777436704 | 20° C | 36% | 1028.1 hPa | - | - | - | - |
| 1777435804 | 20° C | 36% | 1028 hPa | - | - | - | - |
| 1777425898 | 20° C | 39% | 1027.5 hPa | - | - | - | - |
| 1777410591 | 19.44° C | 32% | 1026.5 hPa | - | - | - | - |
| 1777408794 | 19.44° C | 30% | 1026.4 hPa | - | - | - | - |
| 1777404285 | 19.44° C | 29% | 1025.9 hPa | - | - | - | - |
| 1777403385 | 19.44° C | 29% | 1025.8 hPa | - | - | - | - |
| 1777397084 | 19.44° C | 30% | 1024.7 hPa | - | - | - | - |
| 1777392578 | 19.44° C | 30% | 1024.1 hPa | - | - | - | - |
| 1777389878 | 19.44° C | 30% | 1024 hPa | - | - | - | - |
| 1777388978 | 20° C | 30% | 1023.9 hPa | - | - | - | - |
| 1777388078 | 19.44° C | 30% | 1023.9 hPa | - | - | - | - |
| 1777387178 | 19.44° C | 30% | 1024 hPa | - | - | - | - |
| 1777386278 | 19.44° C | 30% | 1023.9 hPa | - | - | - | - |
* Rain since midnight (hover to see other rain measurements)
** Current wind speed in m/s (hover to see current wind gust speed)